Location: Central Springs Elementary School at Manly
(43.2859°N, 93.1959°W)
Time: 06:08:03
(UTC+00:00)

UNISAT 6 - Pass Details

Date: 06 December 2024
Orbit: 584 x 653 km, 97.7° (Epoch: 18 January)

Event Time Altitude Azimuth Distance (km) Brightness Sun altitude
Rises 23:15:25 0° 4° (N) 2,822 ? -7.0°
Reaches altitude 10° 23:17:40 10° 357° (N) 1,920 ? -7.4°
Maximum altitude 23:21:31 38° 289° (WNW) 905 ? -8.0°
Drops below altitude 10° 23:25:24 10° 221° (SW) 1,928 ? -8.7°
Sets 23:27:40 0° 213° (SSW) 2,835 ? -9.0°
